FENGYUN 1C DEB, 35125

Orbit data source: Space-Track

FENGYUN 1C DEB, 35125 is space debris in SSO originally from a launch on Mon, 10 May 1999 UTC launched from the Taiyaun Space Center, China (TSC). Fengyun 1C debris stems from the Chinese weather satellite Fengyun-1C, which was intentionally destroyed by a Chinese anti-satellite missile in 2007. This event dramatically increased the amount of space debris, with thousands of trackable fragments posing hazards to satellites and human spaceflight. The Fengyun 1C debris cloud has become a focal point in discussions about space sustainability and the need for international regulations to prevent the creation of new debris.

Loading next visibility...
Identifier
35125, 1999-025DLD
Orbit
SSO
Country
Flag of CNCN / PRC
Related business
Manufacturer
Unknown
Mission
Spacecraft
Bus & Motor
Unknown
Mass
Unknown
Launch date (UTC)
1999-05-10 (27 years ago)
Launch vehicle
Unknown
Launch site
Taiyaun Space Center, China (TSC)
Object type
Payload
Rocket body
Debris
Shape & HBR
Unknown shape, 0.1 m
Radar Cross Section
Small (<0.1 m²)

Expand to show TLE details & history
Last TLE update: 1 month ago

TLE from 1 month ago
0 FENGYUN 1C DEB
1 35125U 99025DLD 26124.27774861  .00002340  00000-0  83832-3 0  9994
2 35125  98.2100 133.1594 0050751 226.4109 133.2859 14.34135334333243
Epoch: 2026-05-04T06:39Z
TLE epoch observation values (Epoch: 2026-05-04T06:39:57.479Z)
Latitude
-0.00008°
Longitude
171.00067°
Altitude
805.894 km
Speed
7.437 km/s
True Right ascension
08h 52m 38s
True Declination
0° 00' 00"
Sunlit
Object was in daylight at epoch
Visualization orbit readout
Latitude
Unknown
Longitude
Unknown
Altitude
Unknown
Speed
Unknown
Apparent Right ascension
Unknown
Apparent Declination
Unknown
Sunlit
N/A
Visualization observer readout
Local Sidereal Time
19:49:14
Azimuth
Unknown
Elevation
Unknown
Doppler factor
Unknown
Orbital elements
Apogee altitude
811.361 km
Perigee altitude
738.754 km
Semi-major axis
7,153.194 km
Eccentricity
0.00508
Inclination
98.21°
RAAN
133.1594°
Arg. of periapsis
226.4109°
True anomaly
133.70741°
Mean anomaly
133.2859°
Eccentric anomaly
133.49684°
Mean motion
3.58751 °/min
Orbital period
100.35 mins
BSTAR
0.00083832
Loading maneuver chart data...
Computing Atmospheric mass density...
Loading historical data...
Loading historical data...
Loading historical data...
Loading historical data...
Loading historical data...
Loading historical data...
Loading historical data...

Documentation

Showing up to 5 results
|